Weather in Puerto Aventuras

Mexico     20°30′40″N   87°13′51″W
temp.,
°C
wind,
m/s
gust,
m/s
humid.,
%
clouds,
%
prec.,
mm/h
press.,
hPa
HPBL,
m
13 april, tue
tue1301:00+26ese39880 0.0 1012483
04:00+25ese38901 0.0 1011443
07:00+25ese38870 0.0 1012473
10:00+30se46660 0.0 10141037
13:00+31se56610 0.0 10141314
16:00+30se46620 0.0 10121280
19:00+27ese36770 0.0 1013617
22:00+25ese37865 0.1 1015524
14 april, wed
wed1401:00+25ese36865 0.1 1014414
04:00+24e259017 0.0 1013278
07:00+24e259136 0.0 1015323
10:00+29ese466114 0.0 10161266
13:00+30se56571 0.1 10151321
16:00+29se46632 0.0 10131185
19:00+26se37805 0.0 1013608
22:00+24ese49893 0.2 1014466
15 april, thu
thu1501:00+24ese378084 0.2 1013580
04:00+23ese258591 0.0 1012275
07:00+23ese368093 0.0 1013346
10:00+28se4548100 0.0 10141022
13:00
16:00+28sse45595 0.0 10101061
19:00+25se367622 0.0 1010571
22:00+25se37782 0.0 1012588
16 april, fri
fri1601:00+25ese38765 0.0 1011722
04:00+25se48750 0.0 1009856
07:00+25se48765 0.0 1011942
10:00+28sse58649 0.0 10111195
13:00+30sse58590 0.1 10091258
16:00+29sse58672 0.0 10071163
19:00+26sse48811 0.0 1008834
22:00+26se488211 0.0 1009774
17 april, sat
sat1701:00+26se598321 0.0 1009801
04:00+26se598197 0.0 1008903
07:00+27se6972100 0.1 10091098
10:00+27se51079100 0.1 10111095
13:00+29sse596738 0.2 10101245
16:00+29sse587233 0.2 10091190
19:00+26se49870 0.6 1010659
22:00+26ese410872 0.1 1011740